Preview of NWS' New Version of Forecast
This preview is not operational and should not be used for support decisions.
Latest weather observations around

Talladega Municipal Airport (KASN)

Using International System of Units (Switch to English Units)
Date/ Time (CST) Wind (kph) Vis. (km) Weather Sky Cond. Temp (°C) Rel. Humidity Wind Chill (°C) Heat Index (°C) Pressure Precip. (cm)
Air Dwpt 6 hour Altimeter (hPa) Sea level (hPa) 1 hr 3 hr 6 hr
Max Min
Feb 25 17:35 Calm 11.27 Light Rain SCT035 BKN050 OVC090 13 13     100%     1021   0    
Feb 25 17:15 Calm 16.09 Drizzle SCT050 BKN080 OVC100 14 13     99%     1020.7        
Feb 25 16:55 Calm 16.09 Light Drizzle SCT047 BKN075 OVC110 14 13     96%     1021        
Feb 25 16:35 Calm 16.09 Rain SCT047 BKN075 OVC080 14 13     97%     1020.7        
Feb 25 16:15 Calm 16.09 Light Rain SCT070 BKN080 14 13     97%     1020.7        
Feb 25 15:55 Calm 16.09 Light Drizzle OVC080 14 13     96%     1020.3        
Feb 25 15:35 WNW 15 16.09 Rain SCT037 SCT070 BKN080 14 13     97%     1020.3        
Feb 25 15:15   16.09 Light Rain SCT040 SCT055 SCT075 14 14     96%     1020        
Feb 25 14:55 Calm 16.09 Partly Cloudy SCT095 15 14     94%     1019     0  
Feb 25 14:35 Calm 16.09 Light Rain SCT095 15 14     94%     1018.6        
Feb 25 14:15 SSE 5 16.09 Light Rain OVC095 14 14     97%     1018.6        
Feb 25 13:55 SE 8 16.09 Cloudy OVC095 14 14     97%     1018.6        
Notice The following observation data may not be complete
Feb 25 13:35     Clear            %     1019        
Feb 25 13:15 W 8 16.09 Light Rain OVC100 14 13     97%     1019.7        
Feb 25 12:55 Calm 16.09 Light Rain OVC100 14 13     96%     1019.3   0    
Feb 25 12:35 SE 5 16.09 Light Rain OVC090 13 13     97%     1019   0    
Feb 25 12:15 Calm 16.09 Cloudy SCT006 OVC090 13 13     97%     1019.7        
Feb 25 11:55 SE 5 16.09 Light Drizzle BKN006 OVC080 13 12     98%     1020       1
Feb 25 11:35 SE 8 16.09 Light Rain OVC006 13 13     99%     1020.7        
Feb 25 11:15 ESE 8 16.09 Drizzle OVC006 13 12     99%     1021.3        
Feb 25 10:55 SE 5 16.09 Light Rain OVC006 13 12     99%     1022   0    
Feb 25 10:35 Calm 16.09 Light Rain OVC006 12 12     98%     1022.4   0    
Feb 25 10:15 Calm 16.09 Light Rain OVC006 12 12     97%     1022.4   0    
Feb 25 09:55 Calm 16.09 Light Rain OVC006 12 12     97%     1023   0    
Feb 25 09:35 W 8 16.09 Light Rain OVC008 12 12     97%     1022.7   0    
Feb 25 09:15 Calm 16.09 Light Rain OVC008 12 11     95%     1021.3        
Feb 25 08:55 Calm 16.09 Rain OVC008 12 11     92%     1021   0 1  
Feb 25 08:35 E 8 16.09 Light Rain BKN008 BKN012 OVC018 13 12     97%     1020.7   0    
Feb 25 08:15 Calm 11.27 Rain SCT005 BKN008 OVC016 13 13     98%     1020.7   0    
Feb 25 07:55 N 8 6.44 Rain SCT008 BKN016 OVC028 13 13     99%     1020.7   0    
Feb 25 07:35 ENE 8 6.44 Rain SCT008 BKN017 OVC028 13 13     97%     1020   0    
Feb 25 07:15 NNE 5 11.27 Rain SCT007 BKN022 OVC027 13 13     97%     1020.3   0    
Feb 25 06:55 NNW 13 8.05 Heavy Rain SCT017 BKN025 OVC036 14 13     96%     1020   0    
Feb 25 06:35 NNW 17 11.27 Rain SCT007 BKN023 OVC034 14 13     94%     1019.3   0    
Feb 25 06:15 WNW 22 11.27 Rain SCT009 BKN023 OVC028 15 15     96%     1018.6   0    
Feb 25 05:55 NNW 15 8.05 Rain SCT011 BKN025 OVC043 16 15     95%     1017.6   0   0
Feb 25 05:35   11.27 Heavy Rain SCT019 BKN028 OVC049 17 16     94%     1016.6   0    
Feb 25 05:15 S 15 16.09 Cloudy SCT021 BKN049 OVC100 20 19     90%     1015.9        
Feb 25 04:55 SSW 13 16.09 Cloudy SCT023 SCT039 OVC047 20 19     91%     1015.6        
Feb 25 04:35 SSW 15 16.09 Cloudy SCT025 BKN046 OVC055 20 18     91%     1015.6        
Feb 25 04:15 SSW 21 16.09 Cloudy SCT016 BKN034 OVC047 20 18     91%     1015.6        
Feb 25 03:55 SSW 13 11.27 Rain SCT017 BKN037 OVC045 20 18     88%     1015.6   0    
Feb 25 03:35 SSW 18 16.09 Cloudy SCT019 SCT025 OVC043 21 18     84%     1015.9        
Feb 25 03:15 S 18 16.09 Cloudy SCT023 BKN043 OVC065 21 18     83%     1015.9        
Feb 25 02:55 SSW 17 16.09 Cloudy SCT021 BKN070 OVC100 21 18     83%     1015.9        
Feb 25 02:35 SSW 22 16.09 Cloudy SCT023 SCT039 OVC090 21 18     83%     1016.3        
Feb 25 02:15 SSW 18 16.09 Cloudy SCT024 BKN032 OVC090 21 18     82%     1016.3        
Feb 25 01:55 SSW 21 16.09 Cloudy SCT023 BKN029 OVC037 21 18     80%   21 1016.6        
Feb 25 01:35 SSW 22 16.09 Cloudy BKN023 OVC029 21 18     81%     1016.9        
Feb 25 01:15 SSW 17 16.09 Cloudy BKN023 OVC027 21 18     81%     1016.9        
Feb 25 00:55 SSW 15 16.09 Cloudy BKN023 OVC028 21 17     80%     1016.9        
Feb 25 00:35 SSW 18 16.09 Mostly Cloudy BKN027 21 17     80%     1016.9        
Feb 25 00:15 SSW 21 16.09 Mostly Cloudy BKN027 21 17     79%     1016.9        
Feb 24 23:55 SSW 18 16.09 Partly Cloudy SCT025 21 17     79%     1016.9        
Feb 24 23:35 S 21 16.09 Clear CLR 21 17     78%     1016.9        
Feb 24 23:15 SSW 24 16.09 Partly Cloudy SCT100 21 17     77%     1016.9        
Feb 24 22:55 SSW 17 16.09 Partly Cloudy SCT100 21 17     76%   21 1016.9        
Feb 24 22:35 S 21 16.09 Clear CLR 22 17     74%   22 1016.9        
Feb 24 22:15 SSW 24 16.09 Clear CLR 22 16     71%   22 1016.9        
Feb 24 21:55 SSW 18 16.09 Clear CLR 22 16     70%   22 1016.9        
Feb 24 21:35 SSW 18 16.09 Partly Cloudy SCT090 23 16     68%   23 1016.9        
Feb 24 21:15 SSW 17 16.09 Cloudy OVC090 23 16     65%   23 1016.6        
Feb 24 20:55 SSW 21 16.09 Cloudy SCT075 OVC090 23 16     65%   23 1016.6        
Feb 24 20:35 SSW 18 16.09 Cloudy SCT075 OVC090 23 16     64%   24 1016.6        
Feb 24 20:15 SSW 22 16.09 Cloudy SCT070 OVC090 23 16     64%   23 1016.3        
Feb 24 19:55 S 11 16.09 Cloudy SCT080 OVC100 22 16     68%   23 1016.3        
Feb 24 19:35 SSE 17 16.09 Cloudy SCT065 OVC100 22 16     68%   22 1016.3        
Feb 24 19:15 S 8 16.09 Mostly Cloudy BKN055 BKN110 22 16     69%   22 1016.3        
Feb 24 18:55 SSE 5 16.09 Mostly Cloudy SCT060 BKN065 22 16     68%   22 1016.3        
Feb 24 18:35 S 5 16.09 Partly Cloudy SCT085 22 16     68%   22 1016.3        
Feb 24 18:15 SSE 8 16.09 Mostly Cloudy BKN085 23 16     66%   23 1015.9        
Feb 24 17:55 SSE 9 16.09 Mostly Cloudy BKN085 23 16     64%   23 1015.9        
Feb 24 17:35 S 13 16.09 Cloudy OVC085 24 16     62%   24 1015.9        
Feb 24 17:15 S 15 16.09 Cloudy SCT070 OVC080 24 16     59%   25 1015.9        
Feb 24 16:55 SSE 15 16.09 Cloudy OVC080 24 16     60%   25 1015.9        
Feb 24 16:35 S 15 16.09 Partly Cloudy SCT080 25 16     58%   25 1015.9        
Feb 24 16:15 S 18 16.09 Partly Cloudy SCT046 25 16     57%   25 1016.3        
Feb 24 15:55 S 17 16.09 Partly Cloudy SCT046 SCT065 26 16     56%   26 1016.3        
Feb 24 15:35 SSE 15 16.09 Partly Cloudy SCT048 SCT065 SCT100 25 16     59%   25 1016.6        
Feb 24 15:15 S 21 16.09 Partly Cloudy SCT047 SCT055 SCT100 25 16     59%   25 1016.9        
Feb 24 14:55 SSE 17 16.09 Mostly Cloudy BKN047 BKN060 BKN070 24 16     59%   24 1016.9        
Feb 24 14:35 SSE 24 16.09 Mostly Cloudy SCT040 SCT046 BKN080 25 16     57%   25 1017.3        
Feb 24 14:15 S 17 16.09 Mostly Cloudy SCT041 BKN049 BKN080 25 16     59%   25 1017.6        
Feb 24 13:55 S 21 16.09 Cloudy BKN041 BKN049 OVC080 24 16     59%   25 1018        
Feb 24 13:35 S 17 16.09 Cloudy BKN043 BKN049 OVC080 24 16     61%   24 1018.3        
Feb 24 13:15 SSW 17 16.09 Partly Cloudy SCT090 25 16     57%   25 1018.6        
Feb 24 12:55 S 22 16.09 Mostly Cloudy SCT035 BKN090 25 16     59%   25 1019        
Feb 24 12:35 SSW 24 16.09 Mostly Cloudy SCT035 BKN080 24 16     60%   25 1019.7        
Feb 24 12:15 SSW 17 16.09 Mostly Cloudy SCT035 BKN080 24 16     61%   24 1020        
Feb 24 11:55 SSW 18 16.09 Mostly Cloudy SCT035 BKN090 24 16     60%   24 1020.7        
Feb 24 11:35 SSW 15 16.09 Partly Cloudy SCT035 SCT090 SCT110 24 16     60%   24 1020.7        
Feb 24 11:15 S 21 16.09 Clear CLR 24 16     59%   24 1021        
Feb 24 10:55 WSW 15 16.09 Clear CLR 24 16     59%   24 1021.3        
Feb 24 10:35 SW 17 16.09 Partly Cloudy SCT100 24 16     62%   24 1021.3        
Feb 24 10:15 SW 15 16.09 Mostly Cloudy SCT060 BKN100 23 17     67%   23 1021.7        
Feb 24 09:55 SW 21 16.09 Mostly Cloudy SCT060 BKN090 BKN120 23 16     65%   23 1022        
Feb 24 09:35 SSW 15 16.09 Mostly Cloudy BKN090 BKN120 22 16     69%   22 1022        
Feb 24 09:15 SW 15 16.09 Mostly Cloudy BKN090 BKN120 23 17     68%   23 1022        
Feb 24 08:55 SW 9 16.09 Partly Cloudy SCT060 SCT120 21 17     75%     1021.7        
Feb 24 08:35 SW 8 16.09 Partly Cloudy SCT100 SCT120 21 16     76%     1021.7        
Feb 24 08:15 S 11 16.09 Partly Cloudy SCT100 20 16     78%     1021.7        
Feb 24 07:55 S 9 16.09 Mostly Cloudy BKN100 BKN120 20 16     79%     1021.7        
Feb 24 07:35 Calm 16.09 Cloudy SCT060 OVC090 19 17     85%     1021.7        
Feb 24 07:15 Calm 16.09 Cloudy SCT060 OVC090 19 17     87%     1022        
Feb 24 06:55 Calm 16.09 Mostly Cloudy SCT080 BKN090 BKN120 18 17     89%     1021.7        
Feb 24 06:35 Calm 16.09 Light Rain SCT100 BKN120 18 16     88%     1021.7        
Feb 24 06:15 Calm 16.09 Mostly Cloudy BKN100 19 17     87%     1021.3        
Feb 24 05:55 Calm 16.09 Mostly Cloudy BKN110 19 16     86%     1021.3        
Feb 24 05:35 Calm 16.09 Partly Cloudy SCT090 SCT120 19 16     85%     1021.3        
Feb 24 05:15 Calm 16.09 Mostly Cloudy BKN090 BKN110 19 16     85%     1021.3        
Feb 24 04:55 Calm 16.09 Cloudy OVC100 19 16     84%     1021        
Feb 24 04:35 Calm 16.09 Mostly Cloudy BKN110 19 17     84%     1021        
Feb 24 04:15 Calm 16.09 Mostly Cloudy BKN110 19 17     86%     1021        
Feb 24 03:55 Calm 16.09 Mostly Cloudy BKN110 19 17     88%     1021.3        
Feb 24 03:35 Calm 16.09 Mostly Cloudy SCT080 BKN120 19 18     89%     1021.3        
Feb 24 03:15 Calm 16.09 Cloudy SCT060 BKN080 OVC110 20 18     87%     1021.7        
Feb 24 02:55 Calm 16.09 Cloudy BKN060 OVC070 20 18     89%     1021.7        
Feb 24 02:35 Calm 16.09 Cloudy SCT050 OVC070 20 18     86%     1022        
Feb 24 02:15 Calm 16.09 Cloudy BKN050 OVC070 20 18     86%     1022.4        
Feb 24 01:55 Calm 16.09 Cloudy BKN050 OVC060 20 18     87%     1022.4        
Feb 24 01:35 Calm 16.09 Cloudy SCT060 BKN065 OVC120 19 17     89%     1022.7        
Feb 24 01:15 Calm 16.09 Mostly Cloudy SCT048 BKN060 19 17     85%     1022.7        
Feb 24 00:55 Calm 16.09 Partly Cloudy SCT044 SCT050 19 16     83%     1022.7        
Feb 24 00:35 Calm 16.09 Partly Cloudy SCT044 SCT060 18 16     90%     1022.7        
Feb 24 00:15 Calm 16.09 Partly Cloudy SCT039 SCT060 18 15     86%     1022.7        
Feb 23 23:55 Calm 16.09 Mostly Cloudy BKN041 BKN050 17 15     90%     1023        
Feb 23 23:35 Calm 16.09 Mostly Cloudy SCT041 BKN050 BKN070 18 16     84%     1023        
Feb 23 23:15 Calm 16.09 Mostly Cloudy SCT050 BKN100 18 15     86%     1023        
Feb 23 22:55 Calm 16.09 Mostly Cloudy SCT050 SCT070 BKN090 19 15     82%     1023.4        
Feb 23 22:35 Calm 16.09 Mostly Cloudy SCT060 SCT075 BKN090 19 15     82%     1023.4        
Feb 23 22:15 Calm 16.09 Cloudy SCT049 BKN075 OVC090 18 16     84%     1023.7        
Feb 23 21:55 Calm 16.09 Cloudy SCT049 BKN070 OVC090 19 15     82%     1023.7        
Feb 23 21:35 Calm 16.09 Mostly Cloudy BKN070 18 15     86%     1023.7        
Feb 23 21:15 Calm 16.09 Partly Cloudy SCT080 17 15     87%     1023.7        
Feb 23 20:55 Calm 16.09 Clear CLR 18 15     82%     1023.7        
Feb 23 20:35 Calm 16.09 Clear CLR 17 15     86%     1023.7        
Feb 23 20:15 Calm 16.09 Clear CLR 18 15     83%     1024.1        
Feb 23 19:55 Calm 16.09 Clear CLR 20 15     76%     1024.1        
Feb 23 19:35 Calm 16.09 Mostly Cloudy BKN085 20 15     77%     1024.4        
Feb 23 19:15 Calm 16.09 Mostly Cloudy BKN085 20 15     73%     1024.4        
Feb 23 18:55 Calm 16.09 Clear CLR 23 15     61%   23 1024.4        
Feb 23 18:35 W 5 16.09 Clear CLR 23 15     59%   23 1024.1        
Feb 23 18:15 Calm 16.09 Clear CLR 23 15     60%   23 1024.1        
Feb 23 17:55 Calm 16.09 Clear CLR 23 15     58%   23 1024.1        
Feb 23 17:35 Calm 16.09 Clear CLR 24 14     54%   24 1024.1        
Feb 23 17:15 SSW 8 16.09 Clear CLR 25 15     54%   25 1024.1        
Feb 23 16:55 SW 9 16.09 Clear CLR 25 14     51%   25 1024.1        
Feb 23 16:35 WSW 11 16.09 Clear CLR 26 14     49%   26 1023.7        
Feb 23 16:15 SSW 9 16.09 Partly Cloudy SCT055 27 15     48%   27 1023.7        
Feb 23 15:55 Calm 16.09 Partly Cloudy SCT055 26 14     49%   26 1024.1        
Feb 23 15:35 SSW 11 16.09 Clear CLR 27 14     47%   27 1024.1        
Feb 23 15:15 SW 18 16.09 Partly Cloudy SCT060 27 14     45%   27 1024.4        
Feb 23 14:55 S 15 16.09 Partly Cloudy SCT060 SCT075 SCT085 27 15     48%   27 1024.7        
Feb 23 14:35 SSW 17 16.09 Partly Cloudy SCT060 SCT070 27 14     46%   27 1024.7        
Feb 23 14:15 WSW 17 16.09 Partly Cloudy SCT060 SCT070 27 15     49%   27 1025.1        
Feb 23 13:55 SSW 13 16.09 Partly Cloudy SCT050 SCT075 27 16     50%   27 1025.4        
Feb 23 13:35 WSW 11 16.09 Partly Cloudy SCT050 SCT065 26 15     52%   26 1025.7        
Feb 23 13:15 SW 15 16.09 Mostly Cloudy BKN050 BKN065 26 15     52%   26 1026.1        
Feb 23 12:55 SSW 18 16.09 Clear CLR 26 15     50%   27 1026.4        
Feb 23 12:35 SSW 17 16.09 Partly Cloudy SCT049 SCT060 27 15     50%   27 1026.8        
Feb 23 12:15 SW 13 16.09 Partly Cloudy SCT049 SCT060 25 15     54%   25 1027.1        
Feb 23 11:55 SSW 13 16.09 Partly Cloudy SCT047 SCT060 26 16     54%   26 1027.8        
Feb 23 11:35 SSW 18 16.09 Mostly Cloudy SCT042 SCT048 BKN060 26 15     53%   26 1028.1        
Feb 23 11:15 SSW 9 16.09 Mostly Cloudy SCT040 BKN047 BKN060 24 16     61%   24 1028.5        
Feb 23 10:55 S 11 16.09 Partly Cloudy SCT043 24 16     62%   24 1028.5        
Feb 23 10:35 S 13 16.09 Clear CLR 24 17     63%   25 1028.8        
Feb 23 10:15 SSE 13 16.09 Clear CLR 24 17     66%   24 1028.8        
Feb 23 09:55 SSE 5 16.09 Clear CLR 23 17     69%   23 1028.8        
Feb 23 09:35 S 9 16.09 Clear CLR 22 17     74%   22 1028.8        
Feb 23 09:15 SE 8 16.09 Clear CLR 21 17     77%   22 1029.1        
Feb 23 08:55 SE 5 16.09 Clear CLR 21 17     79%     1029.1        
Feb 23 08:35 Calm 16.09 Clear CLR 19 17     87%     1029.1        
Feb 23 08:15 Calm 16.09 Clear CLR 18 17     93%     1029.1        
Feb 23 07:55 Calm 16.09 Clear CLR 17 16     94%     1028.8        
Feb 23 07:35 Calm 16.09 Clear CLR 16 16     99%     1028.5        
Feb 23 07:15 Calm 6.44 Fog/Mist CLR 15 14     99%     1028.5        
Feb 23 06:55 Calm 2.41 Fog/Mist VV007 14 14     100%     1028.5        
Feb 23 06:35 Calm 4.83 Fog/Mist CLR 14 14     100%     1028.1        
Feb 23 06:15 Calm 11.27 Clear CLR 15 15     100%     1028.1        
Feb 23 05:55 Calm 11.27 Clear CLR 14 14     99%     1027.8        
Feb 23 05:35 Calm 16.09 Clear CLR 15 14     98%     1027.8        
Feb 23 05:15 Calm 11.27 Clear CLR 15 14     99%     1027.8        
Feb 23 04:55 Calm 16.09 Clear CLR 16 15     96%     1027.8        
Feb 23 04:35 Calm 16.09 Clear CLR 16 15     96%     1027.8        
Feb 23 04:15 Calm 16.09 Partly Cloudy SCT048 16 16     96%     1027.8        
Feb 23 03:55 Calm 16.09 Mostly Cloudy BKN048 16 16     97%     1028.1        
Feb 23 03:35 Calm 16.09 Cloudy OVC050 16 16     97%     1028.1        
Feb 23 03:15 Calm 16.09 Cloudy OVC048 16 16     97%     1028.1        
Feb 23 02:55 Calm 16.09 Mostly Cloudy BKN048 16 15     93%     1028.1        
Feb 23 02:35 ENE 5 16.09 Partly Cloudy SCT048 17 15     93%     1028.1        
Feb 23 02:15 Calm 16.09 Partly Cloudy SCT048 18 16     86%     1028.1        
Feb 23 01:55 Calm 16.09 Partly Cloudy SCT044 19 16     85%     1028.1        
Feb 23 01:35 S 8 16.09 Partly Cloudy SCT044 17 15     89%     1028.1        
Feb 23 01:15 Calm 16.09 Clear CLR 17 15     91%     1028.1        
Feb 23 00:55 Calm 16.09 Clear CLR 15 14     95%     1028.1        
Feb 23 00:35 Calm 16.09 Clear CLR 15 15     96%     1028.1        
Feb 23 00:15 Calm 16.09 Partly Cloudy SCT046 15 14     96%     1028.1        
Feb 22 23:55 Calm 16.09 Partly Cloudy SCT046 16 15     94%     1028.1        
Feb 22 23:35 Calm 16.09 Partly Cloudy SCT050 16 15     96%     1028.1        
Feb 22 23:15 Calm 16.09 Mostly Cloudy BKN048 16 15     94%     1028.5        
Feb 22 22:55 Calm 16.09 Clear CLR 16 15     94%     1028.5        
Feb 22 22:35 Calm 16.09 Clear CLR 15 14     94%     1028.5        
Feb 22 22:15 Calm 16.09 Clear CLR 16 15     95%     1028.5        
Feb 22 21:55 Calm 16.09 Clear CLR 16 15     93%     1028.5        
Feb 22 21:35 Calm 16.09 Clear CLR 17 15     93%     1028.1        
Feb 22 21:15 Calm 16.09 Clear CLR 16 15     93%     1028.1        
Feb 22 20:55 Calm 16.09 Clear CLR 17 15     93%     1027.8        
Feb 22 20:35 Calm 16.09 Clear CLR 17 16     89%     1027.8        
Feb 22 20:15 Calm 16.09 Clear CLR 18 16     86%     1027.8        
Feb 22 19:55 Calm 16.09 Clear CLR 18 16     88%     1027.8        
Feb 22 19:35 Calm 16.09 Clear CLR 19 16     84%     1027.8        
Feb 22 19:15 Calm 16.09 Clear CLR 20 16     78%     1027.8        
Feb 22 18:55 Calm 16.09 Clear CLR 21 16     75%     1027.8        
Feb 22 18:35 Calm 16.09 Clear CLR 22 16     70%   22 1027.8        
Feb 22 18:15 Calm 16.09 Clear CLR 22 16     67%   23 1027.8        
Feb 22 17:55 SSW 8 16.09 Clear CLR 23 16     63%   23 1027.8        
Feb 22 17:35 SW 8 16.09 Clear CLR 24 16     61%   24 1027.4        
Notice The following observation data may not be complete
Jun 12 07:15   16.09 Clear CLR          %              
Notice The following observation data may not be complete
Jun 12 06:35   16.09 Clear CLR          %              
Jun 11 15:15 SSE 15 16.09 Clear   31 21     55%   34 1020        
Notice The following observation data may not be complete
Jun 11 12:35   16.09 Mostly Cloudy SCT034 SCT046 BKN070          %              
Jun 11 12:15 SE 15 16.09 Mostly Cloudy SCT029 SCT050 BKN070 29 22     64%   32 1021.3        
Jun 11 10:15 SE 11 16.09 Partly Cloudy SCT021 28 22     73%   30 1022        
Notice The following observation data may not be complete
Jun 11 04:35   16.09 Clear CLR          %              
Jun 11 03:15 Calm 16.09 Mostly Cloudy BKN070 18 17     92%     1019.3        
Jun 10 17:55 SSE 11 16.09 Clear   29 17     49%   30 1017.6        
Notice The following observation data may not be complete
Jun 10 15:35   16.09 Partly Cloudy SCT075 SCT095          %              
Jun 09 20:35 Calm 16.09 Partly Cloudy SCT065 23 18     70%   24 1014.6        
Jun 09 15:15 Calm 16.09 Mostly Cloudy BKN065 28 15     44%   28 1014.6        
Jun 09 11:35 SSW 8 16.09 Mostly Cloudy BKN050 27 15     49%   27 1015.9        
Jun 09 09:55 Calm 16.09 Clear CLR 25 17     61%   25 1015.9        
Jun 09 04:15 Calm 16.09 Clear CLR 16 15     94%     1013.6        
Jun 09 01:15 Calm 16.09 Clear CLR 17 16     94%     1013.6        
Notice The following observation data may not be complete
Jun 08 21:15   16.09 Mostly Cloudy BKN060          %              
Notice The following observation data may not be complete
Jun 08 16:15   16.09 Partly Cloudy SCT055          %              
Jun 08 14:15 W 11 16.09 Clear CLR 27 15     48%   27 1012.5        
Jun 08 13:15 WSW 8 16.09 Partly Cloudy SCT040 SCT046 26 15     51%   26 1013.2        
Jun 08 08:15 Calm 16.09 Clear   19 16     81%     1013.9        
Jun 08 07:55 Calm 16.09 Clear CLR 18 16     88%     1013.9        
Jun 08 07:15 Calm 16.09 Mostly Cloudy BKN048 17 15     88%     1013.6        
Jun 07 23:15 Calm 16.09 Clear CLR 18 14     77%     1012.5        
Jun 07 22:35 Calm 16.09 Clear CLR 18 15     82%     1012.2        
Jun 07 19:35 N 9 16.09 Clear CLR 25 13     47%   25 1010.8        
Jun 07 19:15 N 8 16.09 Clear CLR 26 13     44%   26 1010.5        
Notice The following observation data may not be complete
Jun 07 15:15   16.09 Partly Cloudy SCT043 SCT050          %              
Jun 07 10:15 NE 13 16.09 Clear CLR 23 17     67%   24 1010.5        
Jun 07 09:55 NE 21 16.09 Clear CLR 23 17     67%   23 1010.5        
Jun 06 12:35 NE 15 16.09 Partly Cloudy SCT014 SCT038 24 22     86%   25 1009.5        
Jun 06 04:35 Calm 11.27 Partly Cloudy SCT036 SCT065 SCT110 21 21     98%     1009.2        
Notice The following observation data may not be complete
Jun 05 22:15   16.09 Clear CLR          %              
Jun 05 17:15 SSE 11 16.09 Thunderstorms and Rain OVC095 23 22     96%   24 1009.8   0